Glenwood, MN

3:56 PM CST on November 18, 2017 (GMT -0600)
Glenwood Municipal

Weather History for KGHW - September, 2014

Change the Weather History Date:

Sunday, September 14, 2014

  Actual Average Record
Temperature  
Mean Temperature 48 °F -  
Max Temperature 57 °F 69 °F 89 °F (1969)
Min Temperature 39 °F 46 °F 27 °F (1956)
Degree Days  
Heating Degree Days 17    
Moisture  
Dew Point 42 °F    
Average Humidity 77    
Maximum Humidity 100    
Minimum Humidity 59    
Precipitation  
Precipitation 0.00 in - - ()
Sea Level Pressure  
Sea Level Pressure 30.12 in    
Wind  
Wind Speed 9 mph (West)    
Max Wind Speed 15 mph    
Max Gust Speed 20 mph    
Visibility 10 miles    
Events      
Averages and records for this station are not official NWS values.
T = Trace of Precipitation, MM = Missing Value Source: NWS Daily Summary

Daily Weather History Graph

Daily Weather History Graph

Search for Another Location

Airport or City:

Trip Planner

Search our weather history database for the weather conditions in past years. The results will help you decide how hot, cold, wet, or windy it might be!

Date:

Astronomy

Sep. 14, 2014 Rise Set
Actual Time 6:58 AM CDT 7:34 PM CDT
Civil Twilight 6:28 AM CDT 8:04 PM CDT
Nautical Twilight 5:53 AM CDT 8:39 PM CDT
Astronomical Twilight 5:16 AM CDT 9:16 PM CDT
Moon 11:10 PM CDT (9/14) 1:22 PM CDT (9/14)
Length of Visible Light 13h 35m
Length of Day
12h 35m
Waning Gibbous, 64% of the Moon is Illuminated
Sep 14
Waning Gibbous
Sep 15
Last Quarter
Sep 24
New
Oct 1
First Quarter
Oct 8
Full

Hourly Weather History & Observations

Time (CDT) Temp. Windchill Dew Point Humidity Pressure Visibility Wind Dir Wind Speed Gust Speed Precip Events Conditions
12:13 AM 48.2 °F - 42.8 °F 82% 30.06 in 10.0 mi South 15.0 mph 19.6 mph N/A   Clear
12:33 AM 50.0 °F - 42.8 °F 76% 30.06 in 10.0 mi South 13.8 mph - N/A   Scattered Clouds
12:53 AM 50.0 °F - 42.8 °F 76% 30.07 in 10.0 mi SSW 11.5 mph - N/A   Scattered Clouds
1:14 AM 48.2 °F - 42.8 °F 82% 30.07 in 10.0 mi SSW 9.2 mph - N/A   Mostly Cloudy
1:33 AM 46.4 °F 43.5 °F 42.8 °F 87% 30.07 in 10.0 mi SSW 5.8 mph - N/A   Scattered Clouds
1:53 AM 46.4 °F 43.5 °F 42.8 °F 87% 30.07 in 10.0 mi SSW 5.8 mph - N/A   Clear
2:13 AM 44.6 °F 40.7 °F 42.8 °F 93% 30.07 in 10.0 mi SSW 6.9 mph - N/A   Clear
2:33 AM 44.6 °F 40.7 °F 42.8 °F 93% 30.07 in 10.0 mi South 6.9 mph - N/A   Clear
2:53 AM 42.8 °F 40.1 °F 41.0 °F 93% 30.07 in 10.0 mi SSW 4.6 mph - N/A   Clear
3:13 AM 41.0 °F 37.1 °F 39.2 °F 93% 30.07 in 10.0 mi SSW 5.8 mph - N/A   Clear
3:33 AM 41.0 °F 39.0 °F 39.2 °F 93% 30.07 in 10.0 mi SW 3.5 mph - N/A   Clear
3:53 AM 41.0 °F 38.0 °F 39.2 °F 93% 30.07 in 10.0 mi SW 4.6 mph - N/A   Clear
4:13 AM 39.2 °F 35.0 °F 39.2 °F 100% 30.08 in 10.0 mi WSW 5.8 mph - N/A   Clear
4:33 AM 44.6 °F 40.2 °F 42.8 °F 93% 30.08 in 10.0 mi WSW 8.1 mph - N/A   Clear
4:53 AM 46.4 °F 41.9 °F 42.8 °F 87% 30.08 in 10.0 mi West 9.2 mph 16.1 mph N/A   Clear
5:13 AM 44.6 °F 39.7 °F 42.8 °F 93% 30.09 in 10.0 mi West 9.2 mph - N/A   Clear
5:33 AM 44.6 °F 39.7 °F 41.0 °F 87% 30.09 in 10.0 mi West 9.2 mph - N/A   Clear
5:53 AM 42.8 °F 37.5 °F 41.0 °F 93% 30.09 in 10.0 mi West 9.2 mph - N/A   Clear
6:13 AM 42.8 °F 37.5 °F 39.2 °F 87% 30.10 in 10.0 mi West 9.2 mph - N/A   Clear
6:33 AM 42.8 °F 37.5 °F 39.2 °F 87% 30.10 in 10.0 mi West 9.2 mph - N/A   Clear
6:53 AM 42.8 °F 38.0 °F 39.2 °F 87% 30.10 in 10.0 mi West 8.1 mph - N/A   Clear
7:13 AM 42.8 °F 38.0 °F 39.2 °F 87% 30.10 in 10.0 mi West 8.1 mph - N/A   Clear
7:33 AM 42.8 °F 38.0 °F 39.2 °F 87% 30.11 in 10.0 mi West 8.1 mph - N/A   Clear
7:53 AM 42.8 °F 37.5 °F 39.2 °F 87% 30.11 in 10.0 mi West 9.2 mph - N/A   Clear
8:13 AM 44.6 °F 38.8 °F 41.0 °F 87% 30.12 in 10.0 mi West 11.5 mph - N/A   Clear
8:33 AM 44.6 °F 39.7 °F 41.0 °F 87% 30.12 in 10.0 mi West 9.2 mph - N/A   Clear
8:53 AM 46.4 °F 41.5 °F 41.0 °F 81% 30.12 in 10.0 mi West 10.4 mph - N/A   Clear
9:13 AM 48.2 °F - 42.8 °F 82% 30.12 in 10.0 mi West 13.8 mph - N/A   Clear
9:33 AM 48.2 °F - 42.8 °F 82% 30.12 in 10.0 mi West 11.5 mph - N/A   Clear
9:53 AM 50.0 °F - 42.8 °F 76% 30.12 in 10.0 mi West 11.5 mph - N/A   Clear
10:14 AM 51.8 °F - 42.8 °F 71% 30.12 in 10.0 mi West 10.4 mph - N/A   Clear
10:33 AM 51.8 °F - 42.8 °F 71% 30.13 in 10.0 mi WNW 10.4 mph - N/A   Clear
10:53 AM 53.6 °F - 42.8 °F 67% 30.13 in 10.0 mi WNW 11.5 mph - N/A   Clear
11:13 AM 53.6 °F - 42.8 °F 67% 30.13 in 10.0 mi WNW 13.8 mph - N/A   Clear
11:33 AM 53.6 °F - 42.8 °F 67% 30.14 in 10.0 mi West 10.4 mph - N/A   Clear
11:53 AM 55.4 °F - 42.8 °F 63% 30.14 in 10.0 mi West 10.4 mph 17.3 mph N/A   Clear
12:13 PM 55.4 °F - 42.8 °F 63% 30.14 in 10.0 mi West 11.5 mph 16.1 mph N/A   Clear
12:33 PM 55.4 °F - 42.8 °F 63% 30.14 in 10.0 mi WNW 12.7 mph 16.1 mph N/A   Scattered Clouds
12:53 PM 57.2 °F - 42.8 °F 59% 30.14 in 10.0 mi West 11.5 mph 16.1 mph N/A   Scattered Clouds
1:13 PM 57.2 °F - 42.8 °F 59% 30.14 in 10.0 mi West 13.8 mph 17.3 mph N/A   Scattered Clouds
1:34 PM 57.2 °F - 42.8 °F 59% 30.14 in 10.0 mi West 11.5 mph 16.1 mph N/A   Scattered Clouds
1:53 PM 57.2 °F - 42.8 °F 59% 30.13 in 10.0 mi West 9.2 mph - N/A   Scattered Clouds
2:13 PM 57.2 °F - 42.8 °F 59% 30.13 in 10.0 mi West 8.1 mph - N/A   Scattered Clouds
2:33 PM 57.2 °F - 42.8 °F 59% 30.13 in 10.0 mi NW 6.9 mph - N/A   Scattered Clouds
2:53 PM 57.2 °F - 42.8 °F 59% 30.13 in 10.0 mi WNW 9.2 mph 16.1 mph N/A   Scattered Clouds
3:13 PM 57.2 °F - 42.8 °F 59% 30.12 in 10.0 mi NW 11.5 mph - N/A   Scattered Clouds
3:33 PM 57.2 °F - 42.8 °F 59% 30.12 in 10.0 mi West 10.4 mph - N/A   Scattered Clouds
3:53 PM 55.4 °F - 44.6 °F 67% 30.12 in 10.0 mi NW 6.9 mph - N/A   Mostly Cloudy
4:13 PM 55.4 °F - 42.8 °F 63% 30.12 in 10.0 mi NW 8.1 mph - N/A   Mostly Cloudy
4:33 PM 57.2 °F - 44.6 °F 63% 30.13 in 10.0 mi WNW 11.5 mph - N/A   Mostly Cloudy
4:53 PM 57.2 °F - 44.6 °F 63% 30.13 in 10.0 mi NW 8.1 mph - N/A   Scattered Clouds
5:13 PM 55.4 °F - 42.8 °F 63% 30.13 in 10.0 mi NW 6.9 mph - N/A   Scattered Clouds
5:33 PM 55.4 °F - 42.8 °F 63% 30.13 in 10.0 mi West 5.8 mph - N/A   Mostly Cloudy
5:53 PM 55.4 °F - 42.8 °F 63% 30.13 in 10.0 mi WNW 8.1 mph - N/A   Mostly Cloudy
6:13 PM 57.2 °F - 42.8 °F 59% 30.14 in 10.0 mi NW 8.1 mph - N/A   Scattered Clouds
6:33 PM 55.4 °F - 42.8 °F 63% 30.13 in 10.0 mi NW 4.6 mph - N/A   Scattered Clouds
6:53 PM 53.6 °F - 42.8 °F 67% 30.13 in 10.0 mi WNW 3.5 mph - N/A   Clear
7:13 PM 53.6 °F - 42.8 °F 67% 30.13 in 10.0 mi Calm Calm - N/A   Clear
7:33 PM 53.6 °F - 42.8 °F 67% 30.13 in 10.0 mi Calm Calm - N/A   Clear
7:53 PM 53.6 °F - 44.6 °F 72% 30.12 in 10.0 mi Calm Calm - N/A   Clear
8:14 PM 51.8 °F - 44.6 °F 76% 30.13 in 10.0 mi Calm Calm - N/A   Clear
8:33 PM 51.8 °F - 44.6 °F 76% 30.14 in 10.0 mi Calm Calm - N/A   Clear
8:53 PM 51.8 °F - 44.6 °F 76% 30.14 in 10.0 mi Calm Calm - N/A   Clear
9:13 PM 51.8 °F - 44.6 °F 76% 30.14 in 10.0 mi Calm Calm - N/A   Clear
9:33 PM 48.2 °F - 44.6 °F 87% 30.15 in 10.0 mi WSW 4.6 mph - N/A   Clear
9:53 PM 48.2 °F - 42.8 °F 82% 30.15 in 10.0 mi West 4.6 mph - N/A   Clear
10:13 PM 48.2 °F - 42.8 °F 82% 30.15 in 10.0 mi West 5.8 mph - N/A   Clear
10:33 PM 50.0 °F - 42.8 °F 76% 30.15 in 10.0 mi West 3.5 mph - N/A   Clear
10:53 PM 44.6 °F - 42.8 °F 93% 30.16 in 10.0 mi Calm Calm - N/A   Clear
11:14 PM 44.6 °F - 42.8 °F 93% 30.17 in 10.0 mi Calm Calm - N/A   Clear
11:33 PM 46.4 °F - 42.8 °F 87% 30.16 in 10.0 mi Calm Calm - N/A   Clear
11:53 PM 44.6 °F - 42.8 °F 93% 30.16 in 10.0 mi Calm Calm - N/A   Clear